Location: Bu�n Treun
(12.1333°N, 108.3167°E)
Time: 23:32:04
(UTC+00:00)

IRS-1A Rocket - Pass Details

Date: 13 July 2020
Orbit: 851 x 930 km, 99.2° (Epoch: 14 August)

Event Time Altitude Azimuth Distance (km) Brightness Sun altitude
Exits shadow 12:51:15 35° 163° (SSE) 1,359 4.9 -21.8°
Maximum altitude 12:53:43 85° 76° (ENE) 858 4.1 -22.4°
Drops below altitude 10° 12:59:12 10° 349° (NNW) 2,472 7.1 -23.5°
Sets 13:01:34 0° 348° (NNW) 3,409 8.0 -24.0°
